Location: Arrien
(43.3167°N, 0.1500°W)
Time: 04:35:36
(UTC+00:00)

Cosmos 1000 Rocket - Pass Details

Date: 15 October 2021
Orbit: 954 x 991 km, 82.9° (Epoch: 02 December)

Event Time Altitude Azimuth Distance (km) Brightness Sun altitude
Rises 18:28:36 0° 354° (N) 3,644 7.6 -13.7°
Reaches altitude 10° 18:31:07 10° 357° (N) 2,696 6.9 -14.2°
Maximum altitude 18:37:16 70° 81° (E) 1,020 4.4 -15.3°
Drops below altitude 10° 18:43:25 10° 165° (SSE) 2,697 6.6 -16.4°
Sets 18:45:56 0° 167° (SSE) 3,645 7.3 -16.9°
